Regional Weather Roundup
Issued by NWS

Home | Current Version | Previous Version | Graphics & Text | Print | Product List | Glossary Off
Versions: 1 2 3 4 5 6 7 8 9 10 11 12 13 14 15 16 17 18 19 20 21 22 23 24 25 26 27 28 29 30 31 32 33 34 35 36 37 38 39 40 41 42 43 44 45 46 47 48 49 50

000
ASUS43 KMKX 290400
RWRWI

WISCONSIN REGIONAL WEATHER ROUNDUP
NATIONAL WEATHER SERVICE MILWAUKEE/SULLIVAN WI
1100 PM CDT MON JUL 28 2014

NOTE: "FAIR" INDICATES FEW OR NO CLOUDS BELOW 12,000 FEET WITH NO
SIGNIFICANT WEATHER AND/OR OBSTRUCTIONS TO VISIBILITY.

WIZ001-002-006>008-014>016-023>028-290500-
NORTHWEST WISCONSIN

CITY           SKY/WX    TMP DP  RH WIND       PRES   REMARKS
SUPERIOR ARPT  CLEAR     62  56  79 NW7       30.09S
ASHLAND        MOCLDY    57  56  96 W3        30.08S
HAYWARD        PTCLDY    59  54  83 CALM      30.10F
SIREN          CLEAR     61  55  81 CALM      30.12F
RICE LAKE      CLEAR     59  54  84 CALM      30.13S
LADYSMITH      PTCLDY    63  56  78 W7        30.12S
EAU CLAIRE     NOT AVBL
MENOMONIE      CLEAR     62  56  82 W5        30.11F
NEW RICHMOND   CLEAR     58  56  92 CALM      30.14S
OSCEOLA        CLEAR     59  58  97 SE3       30.16S
$$

WIZ003>005-009-010-017-018-290500-
NORTH CENTRAL WISCONSIN

CITY           SKY/WX    TMP DP  RH WIND       PRES   REMARKS
WOODRUFF       MOCLDY    58  54  86 CALM      30.08S
RHINELANDER    MOCLDY    57  55  93 W7        30.08F
EAGLE RIVER    PTCLDY    56  56 100 CALM      30.06F
LAND O LAKES   PTCLDY    58  56  91 W5        30.07F
PHILLIPS       LGT RAIN  57  55  94 CALM      30.11R
TOMAHAWK       LGT RAIN  57  55  90 W6        30.09F
MEDFORD        PTCLDY    58  54  87 W5        30.09F
MERRILL        LGT RAIN  60  57  88 N8        30.09R
$$

WIZ029-030-035-036-043>047-290500-
CENTRAL WISCONSIN

CITY           SKY/WX    TMP DP  RH WIND       PRES   REMARKS
WAUSAU         CLOUDY    63  56  78 NW8       30.06F
MOSINEE        CLOUDY    61  55  82 W6        30.08F
MARSHFIELD     PTCLDY    61  54  77 NW7       30.08F
STEVENS POINT  PTCLDY    62  53  72 W3        30.08F
WAUPACA        CLOUDY    67  53  60 NW5       30.05F
WAUTOMA        NOT AVBL
WISC RAPIDS    CLEAR     62  55  77 W5        30.09F
CAMP DOUGLAS   NOT AVBL
$$

WIZ011>013-019>022-031-037>040-048>050-290500-
NORTHEAST WISCONSIN

CITY           SKY/WX    TMP DP  RH WIND       PRES   REMARKS
ANTIGO         PTCLDY    57  55  92 W5        30.06F
STURGEON BAY   CLOUDY    57  52  82 SW3       30.02S
GREEN BAY      CLOUDY    62  56  80 W6        30.03F
MANITOWOC      NOT AVBL
APPLETON       MOCLDY    61  54  77 W7        30.05S
CLINTONVILLE   CLOUDY    63  54  72 W5        30.04F
OSHKOSH        CLOUDY    64  54  69 W5        30.04F
$$

WIZ032>034-041-042-053>061-290500-
SOUTHWEST WISCONSIN

CITY           SKY/WX    TMP DP  RH WIND       PRES   REMARKS
LA CROSSE      CLEAR     63  57  81 E5        30.10F
SPARTA         CLEAR     54  52  92 CALM      30.12S
VIROQUA        FAIR      58  53  82 W3        30.13S
BOSCOBEL       CLEAR     56  53  90 CALM      30.11F
PRAIRIE DU CHI CLEAR     58  54  84 CALM      30.11F
PLATTEVILLE    FAIR      60  53  76 NW5       30.12F
$$

WIZ056-057-062-063-064-067-068-290500-
SOUTH CENTRAL WISCONSIN

CITY           SKY/WX    TMP DP  RH WIND       PRES   REMARKS
BARABOO/DELLS  CLOUDY    63  52  67 W5        30.09S
LONE ROCK      NOT AVBL
WATERTOWN      MOCLDY    64  55  72 W3        30.06S
MADISON        PTCLDY    64  52  64 W8        30.08S
MIDDLETON      FAIR      60  53  75 NW3       30.09S
MONROE         CLEAR     63  52  67 W10       30.09F
JANESVILLE     PTCLDY    61  50  67 W5        30.07F
$$

WIZ051-052-058>065-066-070>072-290500-
SOUTHEAST WISCONSIN

CITY           SKY/WX    TMP DP  RH WIND       PRES   REMARKS
MILWAUKEE      MOCLDY    59  49  69 S5        30.06F
WAUKESHA       CLOUDY    63  52  67 CALM      30.07S
MILWAUKEE/TIMM PTCLDY    61  50  67 CALM      30.06S
RACINE         CLOUDY    61  51  70 S6        30.07F
BURLINGTON     CLOUDY    63  53  70 W6        30.05F
KENOSHA        CLOUDY    60  53  77 CALM      30.06F
FOND DU LAC    CLOUDY    63  53  70 W5        30.05F
SHEBOYGAN      MOCLDY    55  53  93 SW3       30.04F
WEST BEND      CLEAR     55  54  94 CALM      30.05F
JUNEAU         CLEAR     62  51  66 CALM      30.07S
$$

LSZ147-162-290500-
LAKE SUPERIOR

STATION/POSITION TIME  TEMP    WIND        PRES    WAVE
                       AIR SEA DIR/SP/G            HT/PER
                 (UTC) (F)     (DEG/KT/KT) (MB)    (FT/S)
W MID LAKE BUOY  0250   56 44  350/ 10/ 14 1017.4F   0
PORT WING        0300   66     270/  6/  8 1018.6R
SAXON HARBOR     0300          190/  2/  4 1018.3S
$$

LMZ867-665-643>646-290500-
LAKE MICHIGAN

STATION/POSITION TIME  TEMP    WIND        PRES    WAVE
                       AIR SEA DIR/SP/G            HT/PER
                 (UTC) (F)     (DEG/KT/KT) (MB)    (FT/S)
N MID LAKE BUOY  0250   56 54  230/  8/  8 1015.4F   1/ 3
NORTHPORT PIER   0300   63     240/  4/  7 1015.9S
SISTER BAY       0340   65     260/  7/  8   N/A
ALGOMA LAKESHORE 0221             CALM       N/A
KEWAUNEE LAKESHO 0300   57      CALM  /  1 1017.5F
SHEBOYGAN LAKESH 0300   60     180/  6/  7 1017.8S
PORT WASHINGTON  0340   60     210/  3/  6 1018.3S
ATWATER BUOY     0300   61     150/  8     1018.9R
MILWAUKEE LAKESH 0300   60     140/  8/ 10   N/A
S MID LAKE BUOY  0250   59 60  360/  2/  4 1018.0R   3/ 6
KENOSHA   LAKESH 0300   61     160/  4/  6 1017.9S
$$

TC  - TEMPERATURE IN CELSIUS
VSB - VISIBILITY IN STATUTE MILES
WCI - WIND CHILL INDEX
HX  - HEAT INDEX




USA.gov is the U.S. government's official web portal to all federal, state and local government web resources and services.